China Lake, CA

1:19 AM PDT on April 30, 2017 (GMT -0700)
China Lake NAWS

Weather History for KNID - August, 2014

Change the Weather History Date:

Friday, August 15, 2014

  Actual Average Record
Temperature  
Mean Temperature 83 °F -  
Max Temperature 102 °F 99 °F 111 °F (2002)
Min Temperature 66 °F 70 °F 62 °F (1980)
Cooling Degree Days 18    
Growing Degree Days 33 (Base 50)    
Moisture  
Dew Point 32 °F    
Average Humidity 18    
Maximum Humidity 38    
Minimum Humidity 6    
Precipitation  
Precipitation 0.00 in - - ()
Sea Level Pressure  
Sea Level Pressure 29.89 in    
Wind  
Wind Speed 9 mph (SSW)    
Max Wind Speed 21 mph    
Max Gust Speed 25 mph    
Visibility 10 miles    
Events      
Averages and records for this station are not official NWS values.
T = Trace of Precipitation, MM = Missing Value Source: NWS Daily Summary

Daily Weather History Graph

Daily Weather History Graph

Search for Another Location

Airport or City:

Trip Planner

Search our weather history database for the weather conditions in past years. The results will help you decide how hot, cold, wet, or windy it might be!

Date:

Astronomy

Aug. 15, 2014 Rise Set
Actual Time 6:09 AM PDT 7:40 PM PDT
Civil Twilight 5:42 AM PDT 8:07 PM PDT
Nautical Twilight 5:10 AM PDT 8:39 PM PDT
Astronomical Twilight 4:35 AM PDT 9:13 PM PDT
Moon 10:59 PM PDT (8/15) 11:44 AM PDT (8/15)
Length of Visible Light 14h 24m
Length of Day
13h 30m
Waning Gibbous, 68% of the Moon is Illuminated
Aug 15
Waning Gibbous
Aug 17
Last Quarter
Aug 25
New
Sep 2
First Quarter
Sep 8
Full

Hourly Weather History & Observations

Time (PDT) Temp. Dew Point Humidity Pressure Visibility Wind Dir Wind Speed Gust Speed Precip Events Conditions
12:56 AM 77.0 °F 33.1 °F 20% 29.87 in 10.0 mi South 10.4 mph - N/A   Clear
1:56 AM 73.0 °F 39.9 °F 30% 29.88 in 10.0 mi South 9.2 mph - N/A   Clear
2:56 AM 73.9 °F 39.9 °F 29% 29.88 in 10.0 mi SSW 10.4 mph - N/A   Clear
3:56 AM 71.1 °F 41.0 °F 34% 29.89 in 10.0 mi SW 8.1 mph - N/A   Clear
4:56 AM 70.0 °F 41.0 °F 35% 29.90 in 10.0 mi SSW 9.2 mph - N/A   Clear
5:56 AM 69.1 °F 42.1 °F 38% 29.91 in 10.0 mi SW 6.9 mph - N/A   Clear
6:56 AM 66.0 °F 37.0 °F 34% 29.94 in 10.0 mi Calm Calm - N/A   Clear
7:56 AM 73.0 °F 37.9 °F 28% 29.95 in 10.0 mi West 3.5 mph - N/A   Clear
8:56 AM 78.1 °F 37.9 °F 24% 29.96 in 10.0 mi Variable 3.5 mph - N/A   Clear
9:56 AM 84.0 °F 37.9 °F 19% 29.96 in 10.0 mi Variable 3.5 mph - N/A   Clear
10:56 AM 89.1 °F 37.9 °F 16% 29.96 in 10.0 mi Calm Calm - N/A   Clear
11:56 AM 95.0 °F 28.0 °F 9% 29.94 in 10.0 mi Variable 3.5 mph - N/A   Clear
12:56 PM 98.1 °F 23.0 °F 7% 29.92 in 10.0 mi SSE 11.5 mph 18.4 mph N/A   Clear
1:56 PM 99.0 °F 19.0 °F 6% 29.90 in 10.0 mi SE 11.5 mph - N/A   Clear
2:56 PM 99.0 °F 25.0 °F 7% 29.87 in 10.0 mi South 9.2 mph - N/A   Clear
3:56 PM 100.9 °F 28.0 °F 8% 29.85 in 10.0 mi SSE 12.7 mph - N/A   Clear
4:56 PM 100.9 °F 30.0 °F 8% 29.84 in 10.0 mi South 17.3 mph 25.3 mph N/A   Clear
5:56 PM 99.0 °F 35.1 °F 11% 29.84 in 10.0 mi South 18.4 mph - N/A   Clear
6:56 PM 96.1 °F 37.0 °F 13% 29.83 in 10.0 mi South 20.7 mph - N/A   Clear
7:56 PM 93.0 °F 24.1 °F 8% 29.83 in 10.0 mi WSW 9.2 mph - N/A   Clear
8:56 PM 88.0 °F 26.1 °F 11% 29.87 in 10.0 mi SSW 11.5 mph - N/A   Clear
9:56 PM 87.1 °F 26.1 °F 11% 29.89 in 10.0 mi SSW 15.0 mph - N/A   Clear
10:56 PM 84.0 °F 24.1 °F 11% 29.89 in 10.0 mi SSW 9.2 mph - N/A   Clear
11:56 PM 82.9 °F 28.0 °F 14% 29.89 in 10.0 mi South 15.0 mph - N/A   Clear